一网星座-0313星 (ONEWEB-0313 )

导读

ONEWEB-0313是英国OneWeb卫星星座中的一颗低轨通信卫星,于2021年8月21日发射升空。它运行在距地面约1200公里的近极轨道,采用Ku频段提供通信服务,单星可支持高吞吐量全球互联网接入,面向家庭、移动平台及运营商提供宽带服务。作为OneWeb第一代组网卫星,设计寿命约7年,依靠电力推进系统维持轨道,是英国主导的全球低轨卫星互联网星座的组成部分,助力填补全球网络覆盖盲区,推动普惠互联的实现。

基本信息
目录编号:
49099
目录名称:
ONEWEB-0313
国际标识:
2021-075AA
轨道中心:
EARTH
卫星名称:
一网星座-0313星
卫星全名:
一网星座-0313星 (ONEWEB-0313 )
卫星状态:
在轨 (已飞行1801 天)
发射日期:
2021-08-21 UTC
国别 :
英国 (GB)
星等 :
--
轨道信息
数据来源 国际轨道数据 AOE轨道数据
星历时间 2026-07-27T07:34:38+0800
23小时前
查看轨道信息
2026-07-24T16:00:00+0800
3天前
查看轨道信息
半长轴 7571.854km 7571.857km
偏心率 0.0001764 0.0001744
轨道倾角 87.916° 87.916°
近地点辐角 91.897° 87.710°
升交点赤经 357.963° 358.489°
平近点角 268.236° 313.757°
近地点 1192.381km 1192.399km
远地点 1195.053km 1195.041km
周期 109.286分钟 109.286分钟
每日圈数 13.176481 13.176474
详细信息
平衡模式:
三轴稳定
覆盖范围:
全球
运营商:
一网卫星公司
运营商所在国:
英国
制造商(研发单位):
一网卫星公司
制造商所在国:
英国
使用方式:
暂无
卫星简介
OneWeb卫星网络由648颗重约125公斤的微型卫星组成,运行在1200公里的轨道上。 每颗卫星都能够提供至少每秒8千兆位的吞吐量,以使用其高吞吐量的Ku频段有效载荷为家庭和移动平台提供互联网接入。该卫星仍在工作。
2D轨道图
3D轨道图
轨道高度分析图
轨道倾角分析图
轨道综合分析图
查看轨道综合分析图